SCP
2 2 2 1 1 1 2 2 2 3 4 3 2 2 2 1 1 1 1 1 1 1 1 1 2 1 1 1 1 1 1 1 1 1 1 0 0 0 0 0 0 1 1
2 2 1 1 1 1 2 2 2 3 3 3 2 2 2 2 2 2 1 1 1 1 1 1 1 1 1 1 1 1 1 1 1 1 1 1 0 0 0 0 0 0 1
1 1 1 1 1 2 2 2 2 2 3 3 2 2 2 2 2 2 2 1 1 1 1 1 1 1 1 1 1 1 1 1 1 1 1 1 1 1 0 0 0 0 1
1 1 2 1 1 1 2 2 2 3 3 3 2 2 2 2 2 2 2 1 2 1 1 1 1 2 2 2 2 1 2 2 2 1 1 1 1 1 1 1 1 1 1
2 2 2 2 1 2 2 2 3 4 3 2 2 2 2 2 2 2 2 2 1 1 1 1 2 2 2 2 2 2 2 2 2 2 1 1 1 1 1 1 1 1 1
3 3 3 2 2 2 2 3 4 4 3 2 2 2 2 2 3 3 3 2 2 2 2 2 2 2 2 2 2 2 2 3 3 2 2 2 1 1 1 1 1 1 1
3 3 3 3 3 3 3 4 5 5 4 3 3 3 3 3 3 3 2 2 2 2 3 2 2 3 2 2 2 2 2 2 2 2 2 2 2 2 2 1 1 1 1
3 3 4 4 4 4 5 5 6 7 7 5 4 3 3 3 2 2 2 2 2 2 3 3 3 3 3 2 2 2 2 2 2 2 2 2 2 2 2 1 1 1 1
2 3 4 4 5 6 6 7 8 9 8 6 4 3 3 2 2 2 2 2 2 2 2 3 3 3 3 3 3 3 2 2 2 2 2 3 2 2 2 2 2 1 1
3 3 4 5 5 6 7 7 7 7 7 5 3 3 3 3 2 2 2 2 2 2 2 3 3 3 3 3 4 4 3 3 2 3 3 3 2 2 2 2 3 2 2
4 4 4 5 5 6 7 7 7 6 5 4 3 3 4 4 3 3 3 3 3 3 3 3 3 4 4 4 4 4 3 2 3 3 3 3 2 2 2 3 3 3 3
5 5 4 4 5 6 8 8 7 5 4 4 4 4 4 5 4 4 3 3 3 3 3 3 3 4 4 4 4 3 3 2 3 3 3 3 3 3 3 3 3 3 3
5 5 5 5 5 6 6 6 6 5 4 4 4 5 5 6 5 4 4 3 3 3 2 2 3 3 3 3 3 3 3 3 3 3 3 4 4 4 4 3 3 3 3
4 5 5 5 5 5 5 5 4 4 4 4 5 6 7 7 6 4 4 3 3 2 2 2 2 2 2 2 2 3 3 3 3 3 4 4 5 5 5 4 4 4 4
5 6 6 6 5 5 5 5 4 4 5 6 6 8 9 8 6 4 4 3 3 2 2 2 2 2 2 2 3 3 4 4 4 4 4 5 5 6 5 5 5 5 5
5 6 6 6 6 6 5 5 5 4 5 7 8 9 10 9 7 5 4 4 3 3 3 3 2 2 3 3 4 4 4 5 6 6 6 6 6 6 5 4 4 4 5
5 5 6 6 7 7 6 6 6 6 7 8 9 9 10 9 8 6 5 5 4 4 4 4 3 3 3 3 4 5 5 6 7 8 9 9 9 8 8 6 4 4 4
6 7 7 6 7 7 6 6 7 9 10 11 10 10 10 10 9 7 6 5 4 5 5 5 4 4 4 4 4 5 7 8 9 10 11 11 11 10 9 8 7 6 5
7 8 7 6 6 6 6 6 8 10 13 13 11 10 9 9 7 6 6 5 5 5 5 5 5 4 4 4 3 5 8 10 11 10 10 10 10 9 7 8 8 7 6
6 6 6 5 5 6 6 7 9 10 11 11 9 9 8 7 6 5 6 6 7 7 6 6 5 4 4 4 3 4 9 11 10 8 6 6 6 5 4 5 6 6 5
5 5 5 5 5 6 6 7 9 10 9 7 6 6 6 6 5 6 7 8 9 9 8 6 5 5 5 5 3 4 7 9 8 6 5 4 3 2 2 3 4 4 4
7 7 7 6 6 6 7 8 9 9 8 6 5 5 5 5 5 7 9 11 11 10 8 6 6 6 6 5 3 3 4 5 5 5 5 4 2 1 0 1 2 2 3
7 7 7 8 8 8 8 9 10 10 8 6 5 4 3 4 5 7 9 11 10 9 7 6 6 6 6 6 4 2 2 2 3 4 4 3 2 1 1 1 1 1 2
5 5 6 7 8 8 9 9 9 9 9 8 6 4 4 4 5 6 8 8 8 7 7 6 5 5 6 5 4 3 3 2 2 3 3 3 2 2 2 2 2 2 2
3 3 4 4 5 6 7 8 8 8 8 9 8 6 4 4 5 5 6 6 6 6 6 5 5 6 6 5 4 4 3 3 2 3 3 4 4 4 5 5 5 5 4
3 3 3 3 3 4 6 7 7 6 7 9 9 7 4 4 5 5 4 4 5 4 4 4 5 6 7 5 4 3 3 2 2 3 4 5 5 6 6 6 6 6 6
Wind_Speed
12 11 11 10 10 10 10 10 9 8 7 5 5 5 4 4 3 3 4 4 4 4 4 3 3 3 2 2 2 2 2 2 2 2 2 2 2 2 2 2 1 2 2
12 12 12 12 12 11 11 11 10 9 8 6 4 3 3 3 3 2 2 3 4 4 4 4 3 3 2 3 3 3 2 2 2 2 2 2 3 3 2 1 2 1 1
13 13 13 13 12 12 12 10 10 10 9 8 6 4 3 3 3 3 3 3 3 3 3 3 3 3 4 3 3 4 4 3 3 3 2 2 1 1 2 2 1 1 1
13 13 14 14 14 13 12 11 11 10 9 9 7 7 5 4 4 3 3 3 3 4 4 4 4 4 3 3 4 4 4 4 4 3 3 2 1 2 1 2 3 2 2
13 13 14 14 13 13 12 11 11 10 10 9 8 8 6 4 3 3 3 3 4 4 4 4 4 4 4 4 4 3 5 4 4 3 3 3 3 4 3 2 2 2 2
12 12 12 12 12 12 11 11 11 11 10 10 9 8 7 6 5 5 4 4 4 4 5 5 4 4 4 4 4 4 5 4 4 4 4 4 3 4 3 3 3 2 2
11 11 12 12 11 11 11 11 11 11 10 10 9 8 7 7 7 6 5 5 4 4 4 4 4 4 4 5 5 5 5 5 5 5 4 4 4 3 3 3 3 3 2
10 10 10 11 11 12 12 11 11 11 10 9 8 7 7 6 5 5 5 5 3 3 3 4 4 5 5 5 5 5 5 5 5 6 5 4 4 4 4 4 3 3 3
8 9 9 10 10 11 11 11 11 10 10 9 8 7 7 6 5 5 5 4 4 4 4 5 5 5 5 5 5 4 5 5 6 6 6 5 4 4 4 4 4 4 4
7 7 8 8 9 9 9 10 10 10 10 9 8 7 7 6 5 5 5 4 4 4 5 5 5 5 5 5 6 5 5 6 6 4 5 5 5 4 4 4 4 5 5
7 7 7 7 7 8 9 9 9 9 9 8 8 6 6 6 6 5 5 5 5 5 6 6 6 6 6 6 5 6 6 7 6 6 6 6 5 4 4 4 4 4 4
5 6 7 7 7 7 8 8 8 9 8 8 8 7 6 6 6 6 5 5 5 6 6 6 6 7 6 6 6 7 7 7 7 7 7 7 5 6 5 4 5 4 4
5 6 6 6 6 6 7 7 7 7 7 7 7 7 7 6 6 5 5 5 5 5 5 6 6 6 6 7 7 7 7 7 7 7 7 7 6 6 5 5 5 4 5
6 6 6 5 5 5 6 6 7 7 7 7 7 7 6 6 5 5 5 5 5 5 5 6 6 6 7 7 7 7 7 7 6 6 7 7 7 7 6 5 6 5 5
6 6 6 5 5 5 5 5 6 6 6 7 7 6 6 5 5 5 5 5 5 5 5 6 6 6 7 6 6 7 7 7 6 6 6 6 5 3 4 4 5 5 5
5 5 5 5 5 5 5 5 5 6 6 6 6 5 5 5 5 5 5 5 5 5 5 6 6 6 5 2 3 6 6 6 6 6 5 5 6 5 4 2 2 3 5
4 5 4 4 4 4 4 5 5 6 6 6 5 5 5 5 5 5 4 5 5 5 5 6 6 5 3 3 4 6 6 6 5 6 6 5 4 6 6 7 7 6 5
3 3 3 3 3 3 3 4 5 5 6 5 5 5 5 5 4 4 4 4 4 4 4 5 5 5 4 4 6 6 7 6 6 6 6 6 6 5 5 6 7 7 7
2 2 2 2 3 3 3 4 4 4 4 4 4 4 4 4 4 4 4 4 4 4 5 5 5 6 5 5 6 7 6 6 6 6 5 5 6 3 4 7 7 7 6
2 2 2 1 2 2 3 4 4 4 3 3 3 3 3 3 4 4 4 4 5 6 5 5 5 6 6 4 6 8 6 6 5 5 5 5 5 4 5 7 7 8 6
2 2 2 1 1 2 3 3 3 2 2 2 2 2 3 4 4 4 4 4 5 5 5 5 6 6 6 5 6 7 6 5 5 4 4 3 6 6 6 7 6 4 4
2 2 1 1 0 1 2 2 1 1 1 1 2 2 3 4 3 3 3 4 4 5 5 5 6 5 5 4 6 7 7 5 5 4 4 2 6 5 6 5 3 3 5
2 1 1 1 1 1 0 1 1 2 1 2 2 3 3 3 3 3 4 4 4 5 4 4 4 4 3 3 5 7 7 7 5 3 1 3 5 6 6 6 6 7 6
2 2 1 1 1 1 1 2 2 1 1 2 3 3 4 4 3 3 4 3 3 4 4 4 4 3 3 3 3 4 5 6 5 3 3 5 6 6 4 5 6 6 4
2 2 2 2 2 2 2 2 2 2 2 3 4 4 4 3 3 3 3 4 3 3 4 4 4 4 4 2 1 2 3 3 2 2 3 4 4 4 4 4 4 4 4
2 2 3 3 2 2 2 2 2 3 4 3 3 3 3 3 3 3 3 1 3 1 2 3 4 3 1 2 2 3 3 3 4 4 4 4 4 4 4 4 4 3 3
Wind_Direction
194 190 193 192 192 193 194 196 198 190 194 195 200 196 200 205 204 205 200 206 211 203 207 218 196 211 210 208 204 204 199 205 201 203 194 195 189 189 199 220 229 203 205
195 192 194 194 196 195 195 194 198 194 196 194 203 210 207 201 198 204 194 220 217 217 207 209 216 205 204 210 217 214 229 221 204 224 221 205 188 189 187 184 209 220 197
199 193 195 197 197 197 197 196 196 193 196 193 193 188 190 202 189 197 197 211 216 218 226 215 225 223 222 215 218 218 226 233 224 232 251 247 213 167 163 178 187 207 229
203 197 196 199 198 197 194 194 192 192 191 195 200 200 205 206 198 200 189 194 204 211 215 217 221 225 221 214 221 213 223 230 225 209 226 265 302 245 185 187 177 188 218
202 198 197 197 197 193 190 187 187 189 190 197 199 209 215 207 198 194 188 207 201 207 215 218 221 220 219 217 226 224 227 226 228 220 206 208 214 232 233 220 212 198 204
198 197 195 192 193 191 188 184 183 188 190 196 202 211 214 210 205 203 204 210 205 204 205 212 220 220 220 215 217 218 218 228 233 234 226 219 216 216 217 228 225 215 203
193 192 191 188 188 188 186 183 181 185 188 195 202 207 214 212 209 213 210 220 216 212 208 217 219 222 219 218 213 212 222 222 226 230 230 233 241 241 236 238 239 236 217
187 189 188 187 185 185 184 182 181 183 184 190 197 202 208 215 212 212 219 219 226 226 212 217 222 225 224 220 212 218 215 221 226 229 232 232 234 238 237 238 239 237 222
179 182 181 184 183 183 183 183 180 180 181 185 188 195 205 214 212 208 218 221 219 220 213 220 223 228 228 225 219 221 222 222 224 221 215 225 225 232 236 237 240 249 251
170 171 173 179 180 179 178 180 182 182 183 184 192 191 195 199 204 216 220 224 222 224 221 224 225 227 228 227 226 220 215 218 221 226 229 228 226 226 229 235 235 242 260
161 160 160 166 170 172 174 178 179 182 184 185 187 188 190 190 195 207 213 215 220 219 221 224 225 227 229 229 228 231 224 223 223 221 218 222 231 229 225 230 233 234 234
149 149 151 156 163 166 168 170 175 182 183 182 181 183 187 187 194 201 207 210 214 220 220 223 225 227 227 225 225 228 228 227 225 223 222 222 217 219 231 230 228 228 228
143 144 145 151 156 158 162 166 171 177 177 177 181 182 187 191 200 202 205 208 215 224 226 224 226 228 228 228 228 229 229 232 233 228 224 224 222 223 220 223 223 222 221
141 142 139 143 148 152 158 162 167 169 173 176 181 184 190 195 201 206 209 214 219 224 230 232 231 232 232 232 233 236 236 234 235 234 230 226 223 223 221 220 223 225 226
144 142 139 141 148 154 159 162 166 169 174 178 184 186 189 191 198 205 211 217 222 226 230 237 238 236 232 232 233 235 236 238 238 233 230 227 219 227 234 235 220 220 228
145 139 139 141 147 156 162 166 173 172 177 182 183 181 186 190 198 206 210 215 222 230 230 235 240 242 241 208 236 247 237 236 236 234 229 214 201 192 193 220 254 257 240
141 143 149 144 145 153 161 172 176 174 178 183 185 185 190 195 202 209 211 217 225 232 237 240 241 242 240 207 216 232 235 233 234 234 234 232 208 206 209 201 208 221 237
129 142 153 148 151 154 157 166 168 173 177 181 185 188 197 203 210 213 215 222 229 236 243 247 249 246 233 204 212 226 232 237 234 229 228 230 225 214 216 219 220 223 221
103 116 132 152 152 155 162 167 166 169 173 178 187 195 205 209 215 221 224 230 238 243 245 247 249 250 240 213 211 223 232 227 228 228 226 226 225 199 220 226 227 229 226
86 110 123 151 165 163 170 177 179 179 182 195 203 206 212 217 225 231 234 233 236 238 238 240 247 252 250 222 212 219 233 224 222 218 218 218 223 192 207 228 230 231 229
76 96 128 153 185 185 185 186 191 195 195 212 220 215 213 223 230 238 242 243 242 241 239 239 240 240 242 215 210 218 237 232 227 223 224 201 170 190 205 233 236 235 240
79 99 125 135 156 188 196 202 220 282 289 257 243 237 237 242 235 241 246 244 242 236 234 234 238 235 227 217 209 212 223 243 237 235 232 172 157 183 204 220 220 217 234
53 56 78 78 58 24 317 287 349 344 314 280 257 257 252 250 244 240 239 237 233 240 240 238 238 234 225 200 191 202 208 217 229 236 172 154 169 188 201 202 209 218 228
12 3 358 345 4 5 344 325 328 318 283 260 253 248 244 241 240 248 243 247 249 249 248 246 247 241 227 229 215 208 200 198 209 214 165 168 190 214 213 197 209 225 234
348 334 322 314 324 336 323 323 318 298 275 262 254 250 243 241 243 248 266 263 269 282 272 265 258 252 246 234 256 254 228 223 206 205 212 207 197 205 210 214 216 223 219
324 314 310 313 316 308 297 293 283 270 266 261 259 254 250 239 238 240 247 248 265 261 263 277 279 273 250 187 195 217 222 204 186 206 217 214 211 216 219 222 219 223 233